Find Starlink 31929

NORAD ID: 59836 Int'l Des: 2024-097 Owner: SPXS Country: US Constellation: starlink operational
LEOCIRCULAR

实时位置

正在加载3D地球...

关于 Starlink 31929

正在加载描述...

即将过境

Passes for default location (London). Set your location on the main map for personalized predictions.

高度历史

Loading altitude history...

两行轨道根数

1 59836U 24097B 26125.57831520 -.00002582 00000-0 -84268-4 0 9991
2 59836 43.0050 313.3900 0000678 252.3817 107.6961 15.27602695110615
Epoch: May 5, 2026 • Age: 12 hours

当前状态

高度 495.9 km
速度 7.62 km/s
星下点 -43.16°S, 34.08°W
发射日期 May 23, 2024
运行时间 1.9 years
类型 internet

技术详情

分类 Payload
质量 730.00 kg
干质量 700.00 kg
总质量 730.00 kg
长度 0.30 m
直径 4.10 m
跨度 29.00 m
形状 Box + pan
制造商 SPXS
平台类型 Starlink V2M
阶段状态 In Orbit
所有者/国家 SPXS/US

Most Searched